Time,TemperatureF,DewpointF,PressureIn,WindDirection,WindDirectionDegrees,WindSpeedMPH,WindSpeedGustMPH,Humidity,HourlyPrecipIn,Conditions,Clouds,dailyrainin,SoftwareType,DateUTC
2013-05-22 00:00:00,51.6,41.0,30.01,ESE,113,2.0,8.0,67,0.00,CLR,,0.00,WeatherDisplay:10.37,2013-05-22 07:00:00,
2013-05-22 00:15:00,51.4,41.2,30.01,ESE,122,1.0,12.0,68,0.00,CLR,,0.00,WeatherDisplay:10.37,2013-05-22 07:15:00,
2013-05-22 00:30:00,51.0,41.6,30.01,SE,129,1.0,8.0,70,0.00,CLR,,0.00,WeatherDisplay:10.37,2013-05-22 07:30:00,
2013-05-22 00:45:00,50.8,41.7,30.01,ESE,118,2.0,8.0,71,0.00,CLR,,0.00,WeatherDisplay:10.37,2013-05-22 07:45:00,
2013-05-22 01:00:00,50.6,41.5,30.01,ESE,122,1.0,7.0,71,0.00,CLR,,0.00,WeatherDisplay:10.37,2013-05-22 08:00:00,
2013-05-22 01:15:00,50.3,41.3,30.01,SE,135,0.0,6.0,71,0.00,CLR,,0.00,WeatherDisplay:10.37,2013-05-22 08:15:00,
2013-05-22 01:30:00,50.1,41.1,30.01,ESE,111,0.0,5.0,71,0.00,CLR,,0.00,WeatherDisplay:10.37,2013-05-22 08:30:00,
2013-05-22 01:45:00,49.9,40.9,30.01,ESE,104,0.0,6.0,71,0.00,CLR,,0.00,WeatherDisplay:10.37,2013-05-22 08:45:00,
2013-05-22 02:00:00,49.7,40.7,30.01,East,89,0.0,5.0,71,0.00,CLR,,0.00,WeatherDisplay:10.37,2013-05-22 09:00:00,
2013-05-22 02:15:00,49.6,40.2,30.02,ESE,123,0.0,2.0,70,0.00,CLR,,0.00,WeatherDisplay:10.37,2013-05-22 09:15:00,
2013-05-22 02:30:00,49.3,39.9,30.02,ESE,122,0.0,2.0,70,0.00,CLR,,0.00,WeatherDisplay:10.37,2013-05-22 09:30:00,
2013-05-22 02:45:00,49.1,39.4,30.01,ESE,122,0.0,2.0,69,0.00,CLR,,0.00,WeatherDisplay:10.37,2013-05-22 09:45:00,
2013-05-22 03:00:00,49.1,39.3,30.01,East,95,0.0,4.0,69,0.00,CLR,,0.00,WeatherDisplay:10.37,2013-05-22 10:00:00,
2013-05-22 03:15:00,49.0,39.3,30.01,East,86,0.0,4.0,69,0.00,CLR,,0.00,WeatherDisplay:10.37,2013-05-22 10:15:00,
2013-05-22 03:30:00,49.0,38.9,30.01,SE,124,0.0,4.0,68,0.00,CLR,,0.00,WeatherDisplay:10.37,2013-05-22 10:30:00,
2013-05-22 03:45:00,48.7,38.6,30.01,East,84,0.0,2.0,68,0.00,CLR,,0.00,WeatherDisplay:10.37,2013-05-22 10:45:00,
2013-05-22 04:00:00,48.6,38.1,30.01,SE,143,0.0,4.0,67,0.00,CLR,,0.00,WeatherDisplay:10.37,2013-05-22 11:00:00,
2013-05-22 04:15:00,48.3,38.2,30.01,SE,126,0.0,2.0,68,0.00,CLR,,0.00,WeatherDisplay:10.37,2013-05-22 11:15:00,
2013-05-22 04:30:00,48.4,37.9,30.01,ESE,121,0.0,5.0,67,0.00,CLR,,0.00,WeatherDisplay:10.37,2013-05-22 11:30:00,
2013-05-22 04:45:00,48.3,37.8,30.01,ENE,67,0.0,4.0,67,0.00,CLR,,0.00,WeatherDisplay:10.37,2013-05-22 11:45:00,
2013-05-22 05:00:00,48.2,38.1,30.01,ENE,60,0.0,1.0,68,0.00,CLR,,0.00,WeatherDisplay:10.37,2013-05-22 12:00:00,
2013-05-22 05:15:00,48.0,37.9,30.01,East,101,0.0,4.0,68,0.00,CLR,,0.00,WeatherDisplay:10.37,2013-05-22 12:15:00,
2013-05-22 05:30:00,47.9,37.9,30.01,East,88,0.0,2.0,68,0.00,CLR,,0.00,WeatherDisplay:10.37,2013-05-22 12:30:00,
2013-05-22 05:45:00,48.2,38.5,30.01,SSE,149,0.0,5.0,69,0.00,CLR,,0.00,WeatherDisplay:10.37,2013-05-22 12:45:00,
2013-05-22 06:00:00,48.6,38.1,30.01,SE,144,0.0,5.0,67,0.00,CLR,,0.00,WeatherDisplay:10.37,2013-05-22 13:00:00,
2013-05-22 06:15:00,48.8,37.6,30.02,SE,135,0.0,6.0,65,0.00,CLR,,0.00,WeatherDisplay:10.37,2013-05-22 13:15:00,
2013-05-22 06:30:00,49.2,37.5,30.02,SE,138,3.0,9.0,64,0.00,CLR,,0.00,WeatherDisplay:10.37,2013-05-22 13:30:00,
2013-05-22 06:45:00,49.7,38.0,30.02,SE,128,2.0,9.0,64,0.00,CLR,,0.00,WeatherDisplay:10.37,2013-05-22 13:45:00,
2013-05-22 07:00:00,50.3,38.1,30.03,SE,135,3.0,8.0,63,0.00,CLR,,0.00,WeatherDisplay:10.37,2013-05-22 14:00:00,
2013-05-22 07:15:00,51.0,38.4,30.03,SE,133,0.0,8.0,62,0.00,SKC,,0.00,WeatherDisplay:10.37,2013-05-22 14:15:00,
2013-05-22 07:30:00,51.7,36.9,30.03,SE,140,2.0,12.0,57,0.00,SKC,,0.00,WeatherDisplay:10.37,2013-05-22 14:30:00,
2013-05-22 07:45:00,52.4,36.2,30.03,SE,137,6.0,12.0,54,0.00,SKC,,0.00,WeatherDisplay:10.37,2013-05-22 14:45:00,
2013-05-22 08:00:00,53.0,36.3,30.03,SE,140,1.0,12.0,53,0.00,SKC,,0.00,WeatherDisplay:10.37,2013-05-22 15:00:00,
2013-05-22 08:15:00,54.0,35.8,30.03,SE,124,2.0,8.0,50,0.00,SKC,,0.00,WeatherDisplay:10.37,2013-05-22 15:15:00,
2013-05-22 08:30:00,54.6,35.3,30.03,SE,137,2.0,13.0,48,0.00,SKC,,0.00,WeatherDisplay:10.37,2013-05-22 15:30:00,
2013-05-22 08:45:00,55.2,34.7,30.03,SE,135,1.0,12.0,46,0.00,SKC,,0.00,WeatherDisplay:10.37,2013-05-22 15:45:00,
2013-05-22 09:00:00,56.0,33.8,30.04,SE,126,2.0,12.0,43,0.00,SKC,,0.00,WeatherDisplay:10.37,2013-05-22 16:00:00,
2013-05-22 09:15:00,56.3,34.6,30.04,SE,135,0.0,8.0,44,0.00,SKC,,0.00,WeatherDisplay:10.37,2013-05-22 16:15:00,
2013-05-22 09:30:00,57.5,35.1,30.04,SSE,157,0.0,9.0,43,0.00,SKC,,0.00,WeatherDisplay:10.37,2013-05-22 16:30:00,
2013-05-22 09:45:00,57.5,34.6,30.04,SE,138,5.0,12.0,42,0.00,SKC,,0.00,WeatherDisplay:10.37,2013-05-22 16:45:00,
2013-05-22 10:00:00,58.0,35.6,30.03,SE,125,3.0,9.0,43,0.00,SKC,,0.00,WeatherDisplay:10.37,2013-05-22 17:00:00,
2013-05-22 10:15:00,58.6,35.6,30.03,SE,137,2.0,10.0,42,0.00,SKC,,0.00,WeatherDisplay:10.37,2013-05-22 17:15:00,
2013-05-22 10:30:00,59.0,34.7,30.03,ESE,119,0.0,12.0,40,0.00,SKC,,0.00,WeatherDisplay:10.37,2013-05-22 17:30:00,
2013-05-22 10:45:00,59.9,32.9,30.03,ESE,119,1.0,9.0,36,0.00,SKC,,0.00,WeatherDisplay:10.37,2013-05-22 17:45:00,
2013-05-22 11:00:00,60.5,34.8,30.02,SE,127,1.0,8.0,38,0.00,SKC,,0.00,WeatherDisplay:10.37,2013-05-22 18:00:00,
2013-05-22 11:15:00,61.3,34.8,30.02,SE,133,6.0,13.0,37,0.00,SKC,,0.00,WeatherDisplay:10.37,2013-05-22 18:15:00,
2013-05-22 11:30:00,61.8,35.9,30.02,SE,131,2.0,12.0,38,0.00,SKC,,0.00,WeatherDisplay:10.37,2013-05-22 18:30:00,
2013-05-22 11:45:00,62.3,35.0,30.02,SE,124,1.0,12.0,36,0.00,SKC,,0.00,WeatherDisplay:10.37,2013-05-22 18:45:00,
2013-05-22 12:00:00,62.6,34.5,30.01,SE,135,3.0,12.0,35,0.00,SKC,,0.00,WeatherDisplay:10.37,2013-05-22 19:00:00,
2013-05-22 12:15:00,62.7,33.9,30.01,SE,139,2.0,13.0,34,0.00,SKC,,0.00,WeatherDisplay:10.37,2013-05-22 19:15:00,
2013-05-22 12:30:00,63.4,32.2,30.01,SSE,151,3.0,12.0,31,0.00,SKC,,0.00,WeatherDisplay:10.37,2013-05-22 19:30:00,
2013-05-22 12:45:00,63.3,35.9,30.01,SE,136,5.0,12.0,36,0.00,FEW,,0.00,WeatherDisplay:10.37,2013-05-22 19:45:00,
2013-05-22 13:00:00,63.9,36.4,30.00,SE,128,2.0,12.0,36,0.00,FEW,,0.00,WeatherDisplay:10.37,2013-05-22 20:00:00,
2013-05-22 13:15:00,63.7,37.6,30.00,SE,134,5.0,12.0,38,0.00,FEW,,0.00,WeatherDisplay:10.37,2013-05-22 20:15:00,
2013-05-22 13:30:00,63.9,37.8,30.00,SE,124,2.0,14.0,38,0.00,FEW,,0.00,WeatherDisplay:10.37,2013-05-22 20:30:00,
2013-05-22 13:45:00,63.8,35.6,30.00,SE,145,3.0,15.0,35,0.00,FEW,,0.00,WeatherDisplay:10.37,2013-05-22 20:45:00,
2013-05-22 14:00:00,64.0,37.2,30.00,SE,126,5.0,14.0,37,0.00,FEW,,0.00,WeatherDisplay:10.37,2013-05-22 21:00:00,
2013-05-22 14:15:00,64.5,38.3,30.00,East,88,7.0,15.0,38,0.00,FEW,,0.00,WeatherDisplay:10.37,2013-05-22 21:15:00,
2013-05-22 14:30:00,64.2,35.9,29.99,ESE,108,5.0,12.0,35,0.00,FEW,,0.00,WeatherDisplay:10.37,2013-05-22 21:30:00,
2013-05-22 14:45:00,64.1,36.6,29.99,East,93,3.0,15.0,36,0.00,FEW,,0.00,WeatherDisplay:10.37,2013-05-22 21:45:00,
2013-05-22 15:00:00,64.3,36.8,29.99,ESE,104,6.0,14.0,36,0.00,FEW,,0.00,WeatherDisplay:10.37,2013-05-22 22:00:00,
2013-05-22 15:15:00,64.3,36.8,29.99,ESE,116,5.0,13.0,36,0.00,FEW,,0.00,WeatherDisplay:10.37,2013-05-22 22:15:00,
2013-05-22 15:30:00,63.8,36.3,29.98,East,88,2.0,12.0,36,0.00,FEW,,0.00,WeatherDisplay:10.37,2013-05-22 22:30:00,
2013-05-22 15:45:00,63.4,38.6,29.98,ESE,121,6.0,16.0,40,0.00,FEW,,0.00,WeatherDisplay:10.37,2013-05-22 22:45:00,
2013-05-22 16:00:00,63.0,39.5,29.98,East,89,6.0,15.0,42,0.00,FEW,,0.00,WeatherDisplay:10.37,2013-05-22 23:00:00,
2013-05-22 16:15:00,62.4,39.6,29.98,ESE,113,6.0,12.0,43,0.00,FEW,,0.00,WeatherDisplay:10.37,2013-05-22 23:15:00,
2013-05-22 16:30:00,61.6,40.0,29.98,East,99,6.0,13.0,45,0.00,FEW,,0.00,WeatherDisplay:10.37,2013-05-22 23:30:00,
2013-05-22 16:45:00,59.9,39.1,29.98,SE,133,8.0,20.0,46,0.00,FEW,,0.00,WeatherDisplay:10.37,2013-05-22 23:45:00,
2013-05-22 17:00:00,59.7,40.0,29.98,SE,142,7.0,18.0,48,0.00,FEW,,0.00,WeatherDisplay:10.37,2013-05-23 00:00:00,
2013-05-22 17:15:00,59.5,41.3,29.97,ESE,123,3.0,22.0,51,0.00,FEW,,0.00,WeatherDisplay:10.37,2013-05-23 00:15:00,
2013-05-22 17:30:00,59.1,41.5,29.97,East,87,5.0,20.0,52,0.00,FEW,,0.00,WeatherDisplay:10.37,2013-05-23 00:30:00,
2013-05-22 17:45:00,58.6,41.0,29.97,East,87,6.0,15.0,52,0.00,FEW,,0.00,WeatherDisplay:10.37,2013-05-23 00:45:00,
2013-05-22 18:00:00,57.7,41.6,29.97,ENE,65,6.0,13.0,55,0.00,FEW,,0.00,WeatherDisplay:10.37,2013-05-23 01:00:00,
2013-05-22 18:15:00,57.4,41.4,29.96,ENE,77,7.0,14.0,55,0.00,FEW,,0.00,WeatherDisplay:10.37,2013-05-23 01:15:00,
2013-05-22 18:30:00,56.5,41.9,29.96,NE,50,5.0,15.0,58,0.00,FEW,,0.00,WeatherDisplay:10.37,2013-05-23 01:30:00,
2013-05-22 18:45:00,56.4,42.2,29.95,ENE,73,2.0,20.0,59,0.00,FEW,,0.00,WeatherDisplay:10.37,2013-05-23 01:45:00,
2013-05-22 19:00:00,55.7,42.5,29.95,East,82,3.0,14.0,61,0.00,FEW,,0.00,WeatherDisplay:10.37,2013-05-23 02:00:00,
2013-05-22 19:15:00,54.8,42.9,29.95,ENE,75,7.0,17.0,64,0.00,FEW,,0.00,WeatherDisplay:10.37,2013-05-23 02:15:00,
2013-05-22 19:30:00,54.3,42.8,29.96,East,89,3.0,12.0,65,0.00,FEW,,0.00,WeatherDisplay:10.37,2013-05-23 02:30:00,
2013-05-22 19:45:00,53.7,42.6,29.95,East,101,1.0,12.0,66,0.00,FEW,,0.00,WeatherDisplay:10.37,2013-05-23 02:45:00,
2013-05-22 20:00:00,53.0,42.7,29.95,East,84,3.0,13.0,68,0.00,FEW,,0.00,WeatherDisplay:10.37,2013-05-23 03:00:00,
2013-05-22 20:15:00,52.6,43.1,29.95,East,92,3.0,18.0,70,0.00,FEW,,0.00,WeatherDisplay:10.37,2013-05-23 03:15:00,
2013-05-22 20:30:00,52.2,43.1,29.95,ESE,110,1.0,13.0,71,0.00,FEW,,0.00,WeatherDisplay:10.37,2013-05-23 03:30:00,
2013-05-22 20:45:00,52.0,43.3,29.95,SE,126,5.0,12.0,72,0.00,FEW,,0.00,WeatherDisplay:10.37,2013-05-23 03:45:00,
2013-05-22 21:00:00,51.8,43.4,29.95,SE,140,0.0,10.0,73,0.00,FEW,,0.00,WeatherDisplay:10.37,2013-05-23 04:00:00,
2013-05-22 21:15:00,51.8,43.4,29.95,SE,129,2.0,12.0,73,0.00,SKC,,0.00,WeatherDisplay:10.37,2013-05-23 04:15:00,
2013-05-22 21:30:00,51.7,43.7,29.95,ESE,112,2.0,12.0,74,0.00,SKC,,0.00,WeatherDisplay:10.37,2013-05-23 04:30:00,
2013-05-22 21:45:00,51.6,43.5,29.95,ESE,120,2.0,9.0,74,0.00,CLR,,0.00,WeatherDisplay:10.37,2013-05-23 04:45:00,
2013-05-22 22:00:00,51.5,43.5,29.96,ESE,102,5.0,13.0,74,0.00,CLR,,0.00,WeatherDisplay:10.37,2013-05-23 05:00:00,
2013-05-22 22:15:00,51.5,43.5,29.96,ESE,104,1.0,13.0,74,0.00,CLR,,0.00,WeatherDisplay:10.37,2013-05-23 05:15:00,
2013-05-22 22:30:00,51.3,43.3,29.96,ENE,62,1.0,12.0,74,0.00,CLR,,0.00,WeatherDisplay:10.37,2013-05-23 05:30:00,
2013-05-22 22:45:00,51.2,43.9,29.97,East,83,2.0,10.0,76,0.00,CLR,,0.00,WeatherDisplay:10.37,2013-05-23 05:45:00,
2013-05-22 23:00:00,51.0,43.7,29.96,East,86,1.0,10.0,76,0.00,CLR,,0.00,WeatherDisplay:10.37,2013-05-23 06:00:00,
2013-05-22 23:15:00,50.8,43.9,29.96,ESE,107,1.0,9.0,77,0.00,SCT,,0.00,WeatherDisplay:10.37,2013-05-23 06:15:00,
2013-05-22 23:30:00,50.8,43.8,29.96,East,89,0.0,10.0,77,0.00,SCT,,0.00,WeatherDisplay:10.37,2013-05-23 06:30:00,
2013-05-22 23:45:00,50.7,43.8,29.96,ESE,111,0.0,5.0,77,0.00,BKN,,0.00,WeatherDisplay:10.37,2013-05-23 06:45:00,